TimeEDT,TemperatureF,Dew PointF,Humidity,Sea Level PressureIn,VisibilityMPH,Wind Direction,Wind SpeedMPH,Gust SpeedMPH,PrecipitationIn,Events,Conditions,WindDirDegrees,DateUTC
12:53 AM,57.0,54.0,89,29.90,10.0,Calm,Calm,-,N/A,,Clear,0,2014-08-18 04:53:00
1:53 AM,55.9,53.1,90,29.89,10.0,SW,4.6,-,N/A,,Clear,230,2014-08-18 05:53:00
3:53 AM,54.0,51.1,90,29.88,10.0,WSW,3.5,-,N/A,,Clear,240,2014-08-18 07:53:00
4:53 AM,55.9,53.1,90,29.88,10.0,Calm,Calm,-,N/A,,Clear,0,2014-08-18 08:53:00
5:53 AM,53.1,51.1,93,29.89,10.0,SW,3.5,-,N/A,,Clear,230,2014-08-18 09:53:00
6:53 AM,54.0,52.0,93,29.90,10.0,WSW,3.5,-,N/A,,Clear,240,2014-08-18 10:53:00
7:53 AM,60.1,55.0,83,29.92,10.0,WSW,6.9,-,N/A,,Clear,240,2014-08-18 11:53:00
8:53 AM,64.0,55.0,73,29.93,10.0,Calm,Calm,-,N/A,,Clear,0,2014-08-18 12:53:00
9:53 AM,68.0,54.0,61,29.91,10.0,WNW,8.1,-,N/A,,Clear,300,2014-08-18 13:53:00
10:53 AM,70.0,54.0,57,29.91,10.0,Variable,5.8,-,N/A,,Scattered Clouds,0,2014-08-18 14:53:00
11:53 AM,69.1,54.0,58,29.90,10.0,WNW,9.2,-,N/A,,Mostly Cloudy,300,2014-08-18 15:53:00
12:53 PM,73.0,55.0,53,29.88,10.0,Variable,4.6,-,N/A,,Scattered Clouds,0,2014-08-18 16:53:00
1:53 PM,73.9,55.0,52,29.86,10.0,Variable,6.9,-,N/A,,Partly Cloudy,0,2014-08-18 17:53:00
2:53 PM,75.0,54.0,48,29.85,10.0,NW,6.9,-,N/A,,Scattered Clouds,310,2014-08-18 18:53:00
3:53 PM,75.0,52.0,44,29.84,10.0,NW,8.1,-,N/A,,Partly Cloudy,320,2014-08-18 19:53:00
4:53 PM,75.9,52.0,43,29.84,10.0,NNW,8.1,-,N/A,,Partly Cloudy,340,2014-08-18 20:53:00
5:53 PM,75.9,52.0,43,29.84,10.0,North,5.8,-,N/A,,Partly Cloudy,350,2014-08-18 21:53:00
6:53 PM,73.9,51.1,45,29.85,10.0,North,5.8,-,N/A,,Clear,10,2014-08-18 22:53:00
7:53 PM,70.0,54.0,57,29.86,10.0,NE,5.8,-,N/A,,Clear,40,2014-08-18 23:53:00
8:53 PM,63.0,57.0,81,29.88,10.0,SW,3.5,-,N/A,,Scattered Clouds,230,2014-08-19 00:53:00
9:53 PM,63.0,57.0,81,29.90,10.0,Calm,Calm,-,N/A,,Mostly Cloudy,0,2014-08-19 01:53:00
10:53 PM,61.0,57.0,87,29.90,10.0,SW,4.6,-,N/A,,Mostly Cloudy,230,2014-08-19 02:53:00